Time,TemperatureF,DewpointF,PressureIn,WindDirection,WindDirectionDegrees,WindSpeedMPH,WindSpeedGustMPH,Humidity,HourlyPrecipIn,Conditions,Clouds,dailyrainin,SoftwareType,DateUTC
2013-01-15 00:00:00,25.3,22.6,30.36,NNE,29,0.0,3.0,89,0.00,,OVC OVC///CB,0.00,WUHU216DAVISVP2,2013-01-15 05:00:00,
2013-01-15 00:01:00,25.2,22.5,30.36,NNE,29,0.0,3.0,89,0.00,,OVC OVC///CB,0.00,WUHU216DAVISVP2,2013-01-15 05:01:00,
2013-01-15 00:06:00,25.0,22.3,30.36,NNE,29,0.0,2.0,89,0.00,,OVC OVC///CB,0.00,WUHU216DAVISVP2,2013-01-15 05:06:00,
2013-01-15 00:11:00,24.9,22.4,30.36,NW,322,0.0,2.0,90,0.00,,OVC OVC///CB,0.00,WUHU216DAVISVP2,2013-01-15 05:11:00,
2013-01-15 00:16:00,24.8,22.3,30.36,NNW,339,0.0,2.0,90,0.00,,OVC OVC///CB,0.00,WUHU216DAVISVP2,2013-01-15 05:16:00,
2013-01-15 00:21:00,24.7,22.2,30.36,North,11,1.0,2.0,90,0.00,,OVC OVC///CB,0.00,WUHU216DAVISVP2,2013-01-15 05:21:00,
2013-01-15 00:26:00,24.7,22.2,30.36,WNW,301,0.0,2.0,90,0.00,,OVC OVC///CB,0.00,WUHU216DAVISVP2,2013-01-15 05:26:00,
2013-01-15 00:31:00,24.5,22.3,30.36,WNW,301,0.0,2.0,91,0.00,,OVC OVC///CB,0.00,WUHU216DAVISVP2,2013-01-15 05:31:00,
2013-01-15 00:36:00,24.4,22.2,30.36,NW,319,0.0,2.0,91,0.00,,OVC OVC///CB,0.00,WUHU216DAVISVP2,2013-01-15 05:36:00,
2013-01-15 00:41:00,24.3,22.1,30.35,NNE,21,0.0,2.0,91,0.00,,OVC OVC///CB,0.00,WUHU216DAVISVP2,2013-01-15 05:41:00,
2013-01-15 00:46:00,24.3,22.1,30.36,NNW,344,0.0,2.0,91,0.00,,OVC OVC///CB,0.00,WUHU216DAVISVP2,2013-01-15 05:46:00,
2013-01-15 00:51:00,24.2,22.0,30.35,North,5,0.0,2.0,91,0.00,,OVC OVC///CB,0.00,WUHU216DAVISVP2,2013-01-15 05:51:00,
2013-01-15 00:56:00,24.2,22.0,30.35,North,3,0.0,2.0,91,0.00,,OVC OVC///CB,0.00,WUHU216DAVISVP2,2013-01-15 05:56:00,
2013-01-15 01:01:00,24.1,21.9,30.35,NNW,340,0.0,2.0,91,0.00,,OVC OVC///CB,0.00,WUHU216DAVISVP2,2013-01-15 06:01:00,
2013-01-15 01:06:00,24.0,22.1,30.36,NNW,344,0.0,2.0,92,0.00,,OVC OVC///CB,0.00,WUHU216DAVISVP2,2013-01-15 06:06:00,
2013-01-15 01:11:00,23.9,22.0,30.36,North,355,0.0,2.0,92,0.00,,OVC OVC///CB,0.00,WUHU216DAVISVP2,2013-01-15 06:11:00,
2013-01-15 01:16:00,23.8,21.9,30.36,North,8,0.0,2.0,92,0.00,,OVC OVC///CB,0.00,WUHU216DAVISVP2,2013-01-15 06:16:00,
2013-01-15 01:21:00,23.8,21.9,30.36,NNW,335,0.0,2.0,92,0.00,,OVC OVC///CB,0.00,WUHU216DAVISVP2,2013-01-15 06:21:00,
2013-01-15 01:26:00,23.8,21.9,30.37,North,351,0.0,3.0,92,0.00,,OVC OVC///CB,0.00,WUHU216DAVISVP2,2013-01-15 06:26:00,
2013-01-15 01:31:00,23.8,21.9,30.37,North,1,0.0,3.0,92,0.00,,OVC OVC///CB,0.00,WUHU216DAVISVP2,2013-01-15 06:31:00,
2013-01-15 01:36:00,23.6,21.7,30.37,North,356,1.0,3.0,92,0.00,,OVC OVC///CB,0.00,WUHU216DAVISVP2,2013-01-15 06:36:00,
2013-01-15 01:41:00,23.6,21.7,30.37,NNW,347,0.0,2.0,92,0.00,,OVC OVC///CB,0.00,WUHU216DAVISVP2,2013-01-15 06:41:00,
2013-01-15 01:46:00,23.5,21.6,30.37,NNW,337,0.0,2.0,92,0.00,,OVC OVC///CB,0.00,WUHU216DAVISVP2,2013-01-15 06:46:00,
2013-01-15 01:51:00,23.5,21.6,30.37,North,360,1.0,2.0,92,0.00,,OVC OVC///CB,0.00,WUHU216DAVISVP2,2013-01-15 06:51:00,
2013-01-15 01:56:00,23.3,21.4,30.38,NW,322,0.0,2.0,92,0.00,,OVC OVC///CB,0.00,WUHU216DAVISVP2,2013-01-15 06:56:00,
2013-01-15 02:01:00,23.2,21.5,30.38,North,1,0.0,2.0,93,0.00,,OVC OVC///CB,0.00,WUHU216DAVISVP2,2013-01-15 07:01:00,
2013-01-15 02:06:00,23.1,21.4,30.38,NNW,339,0.0,2.0,93,0.00,,OVC OVC///CB,0.00,WUHU216DAVISVP2,2013-01-15 07:06:00,
2013-01-15 02:11:00,23.1,21.4,30.38,NNW,332,0.0,3.0,93,0.00,,OVC OVC///CB,0.00,WUHU216DAVISVP2,2013-01-15 07:11:00,
2013-01-15 02:16:00,23.1,21.4,30.38,NW,312,0.0,3.0,93,0.00,,OVC OVC///CB,0.00,WUHU216DAVISVP2,2013-01-15 07:16:00,
2013-01-15 02:21:00,23.1,21.4,30.38,NNE,15,2.0,3.0,93,0.00,,OVC OVC///CB,0.00,WUHU216DAVISVP2,2013-01-15 07:21:00,
2013-01-15 02:26:00,23.1,21.4,30.38,NW,319,0.0,3.0,93,0.00,,OVC OVC///CB,0.00,WUHU216DAVISVP2,2013-01-15 07:26:00,
2013-01-15 02:31:00,23.0,21.3,30.38,NNW,346,0.0,2.0,93,0.00,,OVC OVC///CB,0.00,WUHU216DAVISVP2,2013-01-15 07:31:00,
2013-01-15 02:36:00,22.9,21.2,30.38,NW,311,0.0,2.0,93,0.00,,OVC OVC///CB,0.00,WUHU216DAVISVP2,2013-01-15 07:36:00,
2013-01-15 02:41:00,22.8,21.1,30.38,NW,311,0.0,2.0,93,0.00,,OVC OVC///CB,0.00,WUHU216DAVISVP2,2013-01-15 07:41:00,
2013-01-15 02:46:00,22.7,21.3,30.38,WNW,285,0.0,2.0,94,0.00,,OVC OVC///CB,0.00,WUHU216DAVISVP2,2013-01-15 07:46:00,
2013-01-15 02:51:00,22.5,21.1,30.38,WNW,285,0.0,2.0,94,0.00,,OVC OVC///CB,0.00,WUHU216DAVISVP2,2013-01-15 07:51:00,
2013-01-15 02:56:00,22.5,21.1,30.38,WNW,285,0.0,1.0,94,0.00,,OVC OVC///CB,0.00,WUHU216DAVISVP2,2013-01-15 07:56:00,
2013-01-15 03:01:00,22.4,21.0,30.38,WNW,285,0.0,1.0,94,0.00,,OVC OVC///CB,0.00,WUHU216DAVISVP2,2013-01-15 08:01:00,
2013-01-15 03:06:00,22.4,21.2,30.38,WNW,285,0.0,0.0,95,0.00,,OVC OVC///CB,0.00,WUHU216DAVISVP2,2013-01-15 08:06:00,
2013-01-15 03:11:00,22.4,21.2,30.38,WNW,285,0.0,1.0,95,0.00,,OVC OVC///CB,0.00,WUHU216DAVISVP2,2013-01-15 08:11:00,
2013-01-15 03:16:00,22.4,21.2,30.38,WNW,285,0.0,1.0,95,0.00,,OVC OVC///CB,0.00,WUHU216DAVISVP2,2013-01-15 08:16:00,
2013-01-15 03:21:00,22.4,21.2,30.38,NW,311,0.0,1.0,95,0.00,,OVC OVC///CB,0.00,WUHU216DAVISVP2,2013-01-15 08:21:00,